[[{"header":{"parameterUnit":"m.s-1","parameterCategory":1,"la1":30.2991,"la2":30.254,"lo1":-89.0895,"lo2":-89.0444,"dy":0.0017,"dx":0.0017,"nx":28,"ny":28,"refTime":"2025-07-22T03:00:00:Z","depth":0,"parameterNumber":2,"parameterNumberName":"U-component_of_WINDS"},"data":[0,0,0,0,0,0,0,0,0,0,0,0,0,0,0,0,0,0,0,0,0,0,0,0,0,0,0,0,0,0,0,0,0,0,0,0,0,0,0,0,0,0,0,0,0,0,0,0,0,0,0,0,0,0,0,0,0,0,2.609,2.609,0,2.6115,2.6115,2.6115,2.6013,2.601,2.6007,2.6004,2.6036,2.604,2.6044,0,0,0,0,0,0,0,0,0,0,0,0,0,2.5961,2.5964,2.6089,2.609,2.609,2.6115,2.6115,2.6115,2.6014,2.601,2.6006,2.6003,2.6035,2.604,2.6044,0,0,0,0,0,0,0,0,0,0,0,0,0,2.6005,2.5965,2.6089,2.6042,2.6038,2.6115,2.6115,2.6115,2.6014,2.601,2.6005,2.6001,2.6034,2.6039,2.6045,2.617,0,0,2.6061,2.6064,0,0,0,0,0,0,0,0,2.6002,2.6009,2.6049,2.6046,2.6041,2.6056,2.6081,2.6134,2.6016,2.6024,2.6004,2.5999,2.6047,2.6051,2.6066,2.6171,2.6172,2.6062,2.6065,2.6068,2.6069,0,0,0,0,0,0,0,2.5999,2.6008,2.61,2.605,2.6045,2.6022,2.6023,2.6091,2.6061,2.6023,2.6015,2.6019,2.6044,2.6061,2.6066,2.6173,2.6062,2.6067,2.607,2.6072,2.6384,2.6389,0,0,0,0,0,0,2.6002,2.6006,2.6099,2.61,2.601,2.6028,2.6029,2.6056,2.606,2.6056,2.6023,2.6014,2.6054,2.606,2.6067,2.6214,2.6068,2.6073,2.6076,2.638,2.6386,2.6391,0,0,0,0,0,0,2.5999,2.6011,2.6098,2.6051,2.606,2.6035,2.6066,2.6059,2.6075,2.606,2.6055,2.6045,2.605,2.6059,2.6145,2.6214,2.6075,2.608,2.6374,2.6381,2.6388,2.651,0,0,0,0,0,0,2.5996,2.6011,2.6056,2.6053,2.6063,2.6173,2.607,2.6063,2.6084,2.6073,2.6079,2.6076,2.6048,2.6137,2.615,2.6219,2.6085,2.6367,2.6377,2.6386,2.6499,2.652,2.6538,0,0,0,0,0,2.5992,2.609,2.6058,2.607,2.6119,2.6177,2.6184,2.6147,2.609,2.6137,2.6128,2.6076,2.6205,2.6147,2.6161,2.6232,2.6363,2.6374,2.6385,2.6491,2.6516,2.6538,0,0,0,0,0,0,2.6103,2.6088,2.6054,2.6153,2.6167,2.616,2.6217,2.6175,2.6206,2.6195,2.615,2.6153,2.6247,2.6248,2.6184,2.6355,2.6274,2.6289,2.635,2.6374,2.6393,2.6391,2.6089,0,0,0,0,0,2.6139,2.6185,2.6171,2.6261,2.6269,2.6243,2.6267,2.6237,2.6251,2.6256,2.6253,2.627,2.6314,2.6344,2.6384,2.65,2.6501,2.6556,2.6576,2.6592,2.6605,2.6668,2.6693,2.6428,2.6428,2.6428,0,0,2.6214,2.6212,2.6244,2.6283,2.629,2.6342,2.6248,2.6306,2.6344,2.6266,2.6346,2.6345,2.6361,2.6463,2.6508,2.6467,2.6679,2.6606,2.6619,2.6623,2.6682,2.6707,2.673,2.6435,2.6434,2.6433,0,0,2.6376,2.6379,2.6454,2.6463,2.6475,2.6457,2.6476,2.6476,2.6471,2.6551,2.6494,2.6541,2.6617,2.6632,2.6649,2.6821,2.6775,2.6836,2.6937,2.6999,2.702,2.7038,2.7101,2.7123,2.6849,2.6849,2.6849,0,2.6468,2.654,2.6498,2.6561,2.6581,2.6511,2.6589,2.6601,2.6626,2.6643,2.6597,2.6693,2.6699,2.6804,2.6846,2.6862,2.6884,2.6834,2.702,2.7038,2.7055,2.7113,2.7137,2.6856,2.6855,2.6855,2.6854,0,2.6654,2.6706,2.6766,2.679,2.6817,2.6887,2.6858,2.6891,2.6861,2.6849,2.6933,2.6938,2.6978,2.7001,2.6972,2.7103,2.7078,2.7027,2.6945,2.7088,2.7142,2.7165,2.6866,2.6864,2.6862,2.686,0,0,2.6884,2.6886,2.6909,2.692,2.693,2.697,2.7039,2.7077,2.7107,2.7128,2.7185,2.7253,2.7207,2.7227,2.72,2.7254,2.7392,2.7197,2.7197,2.7233,2.7538,2.7576,2.7603,2.7362,2.7366,2.737,2.7537,0,2.7043,2.7157,2.7123,2.7238,2.7287,2.7224,2.7284,2.7298,2.729,2.7332,2.7324,2.7373,2.7307,2.7319,2.737,2.7364,2.7452,2.7352,2.7417,2.742,2.7414,2.7631,2.7671,2.7828,2.7558,2.7562,2.7564,0,2.7243,2.7271,2.7391,2.7395,2.7414,2.7468,2.7501,2.7542,2.7559,2.7549,2.7573,2.7535,2.7606,2.7525,2.7622,2.7554,2.758,2.7582,2.7587,2.7591,2.75,2.7641,2.7877,2.7901,2.7597,2.7595,2.7592,0,2.7399,2.7467,2.7548,2.756,2.7566,2.7606,2.7611,2.7623,2.7649,2.7679,2.7696,2.7735,2.7757,2.779,2.7765,2.7708,2.7868,2.7784,2.7863,2.7864,2.7899,2.7897,2.8142,2.7916,2.7916,2.7915,2.7915,0,2.758,2.7656,2.7619,2.7669,2.7753,2.7715,2.7801,2.7799,2.7811,2.7861,2.781,2.7859,2.7824,2.7871,2.7853,2.7938,2.7948,2.7944,2.7938,2.7948,2.7949,2.7963,2.7952,2.7922,2.792,2.7919,2.7918,0,2.7768,2.7745,2.783,2.7829,2.7831,2.7894,2.7895,2.7942,2.7931,2.7996,2.801,2.7993,2.8046,2.8025,2.8082,2.807,2.8178,2.8158,2.8172,2.8167,2.8247,2.824,2.8511,2.8545,2.8297,2.83,2.8302,0,2.7884,2.7941,2.7947,2.7976,2.7985,2.8033,2.8059,2.8026,2.8056,2.808,2.8126,2.8174,2.8211,2.8299,2.8294,2.8338,2.8319,2.8411,2.8325,2.8334,2.8321,2.8317,2.8324,2.8428,2.843,2.8433,2.8435,0,2.8093,2.808,2.8118,2.8155,2.8187,2.8215,2.8237,2.8265,2.8233,2.827,2.8323,2.8352,2.841,2.846,2.8499,2.8507,2.8467,2.8462,2.8483,2.8493,2.8499,2.8497,2.8219,2.8455,2.8453,2.8452,2.8451,2.845,2.8248,2.8297,2.8309,2.8355,2.8369,2.8392,2.8437,2.8433,2.8475,2.8519,2.8498,2.856,2.8578,2.8627,2.8641,2.8691,2.8656,2.8686,2.8693,2.8701,2.8712,2.8492,2.8699,2.8698,2.8697,2.8697,2.8696,0,2.8454,2.846,2.8503,2.8536,2.8574,2.8531,2.8556,2.859,2.8645,2.8664,2.8702,2.8765,2.8813,2.8813,2.8859,2.8899,2.8882,2.8913,2.8909,2.8912,2.8741,2.8718,2.8926,2.8926,2.8926,2.8926,2.8926,2.8926,2.8566,2.8646,2.8636,2.8724,2.8729,2.8788,2.8806,2.8829,2.8844,2.8916,2.8956,2.8955,2.8968,2.9015,2.9059,2.9058,2.9077,2.9115,2.9107,2.8947,2.8924,2.8902,2.8881,2.9119,2.912,2.9274,2.9276,2.9277]},{"header":{"parameterUnit":"m.s-1","parameterCategory":1,"la1":30.2991,"la2":30.254,"lo1":-89.0895,"lo2":-89.0444,"dy":0.0017,"dx":0.0017,"nx":28,"ny":28,"refTime":"2025-07-22T03:00:00:Z","depth":0,"parameterNumber":3,"parameterNumberName":"V-component_of_WINDS"},"data":[0,0,0,0,0,0,0,0,0,0,0,0,0,0,0,0,0,0,0,0,0,0,0,0,0,0,0,0,0,0,0,0,0,0,0,0,0,0,0,0,0,0,0,0,0,0,0,0,0,0,0,0,0,0,0,0,0,0,1.8514,1.8516,0,1.8665,1.8666,1.8668,1.8678,1.8676,1.8675,1.8673,1.8826,1.8832,1.8837,0,0,0,0,0,0,0,0,0,0,0,0,0,1.8235,1.824,1.8514,1.8516,1.8518,1.8664,1.8666,1.8669,1.8678,1.8676,1.8674,1.8672,1.8824,1.8831,1.8838,0,0,0,0,0,0,0,0,0,0,0,0,0,1.8368,1.8241,1.8514,1.854,1.8544,1.8664,1.8667,1.8669,1.8679,1.8676,1.8674,1.8671,1.8822,1.883,1.8839,1.8942,0,0,1.8865,1.8868,0,0,0,0,0,0,0,0,1.836,1.8378,1.8535,1.8539,1.8543,1.865,1.8624,1.876,1.8679,1.8628,1.8673,1.867,1.877,1.8782,1.8816,1.8949,1.8956,1.8865,1.8871,1.8874,1.8877,0,0,0,0,0,0,0,1.8351,1.8371,1.8574,1.8537,1.8542,1.8545,1.8561,1.865,1.8711,1.8632,1.8633,1.8651,1.8771,1.8808,1.882,1.8958,1.8865,1.8873,1.8878,1.8881,1.9183,1.9186,0,0,0,0,0,0,1.8337,1.8364,1.8569,1.8578,1.8444,1.8552,1.857,1.8618,1.871,1.8722,1.8653,1.8651,1.8794,1.881,1.8825,1.8953,1.8874,1.8882,1.8887,1.9181,1.9184,1.9187,0,0,0,0,0,0,1.833,1.8355,1.8563,1.8471,1.8498,1.8559,1.8614,1.8623,1.8659,1.8726,1.8737,1.8679,1.8793,1.8813,1.8913,1.8958,1.8886,1.8894,1.9177,1.9182,1.9186,1.9208,0,0,0,0,0,0,1.8322,1.8353,1.8393,1.8472,1.8503,1.8649,1.8616,1.8627,1.8674,1.8672,1.8753,1.8764,1.8793,1.89,1.8921,1.8968,1.89,1.9173,1.9179,1.9184,1.9203,1.9213,1.922,0,0,0,0,0,1.8312,1.8393,1.8395,1.8419,1.8554,1.8651,1.8669,1.87,1.8677,1.8718,1.8761,1.8761,1.8949,1.891,1.8934,1.8984,1.9171,1.9178,1.9184,1.92,1.9211,1.922,0,0,0,0,0,0,1.8316,1.8403,1.8407,1.8515,1.8576,1.8653,1.8705,1.8711,1.8779,1.8775,1.8811,1.8829,1.8928,1.8966,1.8921,1.9089,1.9057,1.9069,1.9061,1.9072,1.9081,1.907,1.8907,0,0,0,0,0,1.833,1.8402,1.8474,1.8562,1.8592,1.8643,1.8687,1.8706,1.877,1.8796,1.8846,1.8908,1.8981,1.9029,1.9099,1.9208,1.9227,1.9255,1.9263,1.927,1.928,1.9341,1.9355,1.9209,1.9209,1.9209,0,0,1.8359,1.8415,1.8458,1.8564,1.8614,1.8687,1.8665,1.8743,1.8798,1.8808,1.8906,1.8944,1.9016,1.9121,1.917,1.9156,1.9324,1.9278,1.9283,1.929,1.9349,1.9363,1.9375,1.9214,1.9213,1.9212,0,0,1.8449,1.8498,1.8578,1.8628,1.8703,1.8736,1.8755,1.8831,1.8858,1.8956,1.8965,1.903,1.9155,1.9206,1.9248,1.9357,1.9361,1.9379,1.9424,1.9483,1.9495,1.9505,1.9545,1.9559,1.9389,1.9389,1.9389,0,1.8475,1.8586,1.8618,1.8697,1.8743,1.8755,1.8836,1.8883,1.8977,1.9009,1.8991,1.9149,1.9198,1.9316,1.9342,1.9375,1.9399,1.9371,1.949,1.9501,1.9511,1.955,1.9564,1.9391,1.9391,1.939,1.939,0,1.8615,1.8692,1.8747,1.8838,1.8891,1.897,1.9014,1.9064,1.9078,1.9113,1.9213,1.9272,1.9356,1.9385,1.9399,1.9505,1.9494,1.9483,1.9452,1.9526,1.9563,1.9578,1.9393,1.9393,1.9392,1.9392,0,0,1.8713,1.882,1.884,1.8882,1.8965,1.9025,1.9105,1.9187,1.9229,1.9293,1.9361,1.9467,1.9458,1.9505,1.9526,1.9577,1.9661,1.9561,1.9563,1.9578,1.9782,1.979,1.9807,1.9663,1.9666,1.9668,1.9776,0,1.8813,1.8956,1.8987,1.911,1.9182,1.9194,1.9263,1.9322,1.9356,1.9422,1.946,1.9535,1.9517,1.9546,1.9597,1.964,1.9703,1.9632,1.9727,1.973,1.9711,1.9826,1.9835,1.9934,1.9791,1.9793,1.9795,0,1.8949,1.9017,1.9148,1.9222,1.9253,1.9315,1.9393,1.9456,1.9522,1.9544,1.9597,1.9612,1.9695,1.9659,1.9775,1.9726,1.9767,1.9793,1.9798,1.9809,1.9768,1.9841,1.9966,1.9981,1.9817,1.9816,1.9814,0,1.9008,1.9132,1.9227,1.9262,1.9351,1.9394,1.9433,1.9497,1.9545,1.9612,1.9643,1.9719,1.9762,1.982,1.9855,1.9825,1.9968,1.9935,1.9989,1.9988,2.002,2.0017,2.0154,2.0043,2.0043,2.0043,2.0043,0,1.9118,1.9197,1.9255,1.9313,1.9403,1.9437,1.9525,1.9563,1.962,1.9686,1.97,1.9762,1.9804,1.9871,1.9899,1.9991,2.0009,2.0029,2.0036,2.0029,2.0026,2.0057,2.0051,2.0047,2.0046,2.0045,2.0045,0,1.92,1.9241,1.9345,1.9421,1.9442,1.9504,1.9569,1.9626,1.9661,1.9744,1.9765,1.982,1.99,1.994,2.0039,2.0058,2.0162,2.0164,2.014,2.0143,2.0195,2.019,2.0358,2.0382,2.0254,2.0255,2.0256,0,1.9267,1.9329,1.9411,1.9457,1.9497,1.9569,1.9618,1.9654,1.9704,1.9784,1.9832,1.9912,1.9979,2.0106,2.0155,2.0231,2.0235,2.0289,2.0247,2.0238,2.0238,2.0234,2.0241,2.0296,2.0298,2.0299,2.0299,0,1.9383,1.9401,1.947,1.9548,1.9605,1.9668,1.9729,1.9765,1.9811,1.9866,1.9948,2.0,2.0102,2.0182,2.0262,2.0302,2.0309,2.0312,2.0329,2.0323,2.0307,2.0318,2.0162,2.0308,2.0307,2.0307,2.0306,2.0306,1.9461,1.9517,1.9584,1.9661,1.9711,1.9768,1.9825,1.9867,1.9937,2.0023,2.0039,2.0127,2.0192,2.03,2.0342,2.0411,2.0399,2.0423,2.043,2.0436,2.0439,2.0295,2.0425,2.0425,2.0425,2.0425,2.0425,0,1.9579,1.9622,1.9693,1.9779,1.9839,1.984,1.9908,1.9959,2.0036,2.0096,2.0162,2.0256,2.0334,2.0389,2.0468,2.0513,2.0518,2.0532,2.053,2.0539,2.0444,2.0422,2.0527,2.0527,2.0527,2.0527,2.0527,2.0527,1.9647,1.9742,1.9767,1.9887,1.993,2.0016,2.0055,2.0108,2.0156,2.0261,2.0326,2.0361,2.0419,2.0503,2.0575,2.0588,2.0618,2.0632,2.0646,2.0557,2.0546,2.0536,2.0515,2.0638,2.0638,2.0736,2.0737,2.0738]}]]